Theta_e
299 299 299 299 299 298 298 299 300 301 301 302 303 304 307 308 309 309 310 311 312 312 312 311 311 312 310 308 307 308 308 308 309 310 311 312 312 312 311 312 314 315 316 317 318 318 319 319 319 319 318 317 316 315 316 316 317 317 317 317 317 317 316 315 314 314 314 314 314 314 315 315 315 315 315 315 315 315 315 314 314 314 314 314 313 313 313 312 311 311 310 309 307 307 307 306 306 306 306 306 306 305 304
299 299 299 299 299 299 299 300 300 301 302 302 303 304 306 307 309 309 310 311 312 312 312 311 312 312 308 307 307 308 309 309 309 310 310 311 311 310 309 311 313 315 315 316 317 317 318 318 319 318 318 318 317 316 316 316 316 316 315 316 316 316 316 315 314 314 313 312 312 313 314 314 315 315 315 315 315 314 314 313 313 313 313 313 313 314 314 314 313 313 312 311 309 308 307 306 306 305 305 305 305 305 305
300 300 300 300 300 300 300 300 301 303 303 304 304 304 305 307 308 309 310 311 311 311 312 312 312 311 307 306 307 309 309 310 309 310 309 310 311 311 311 312 312 313 314 315 315 314 314 315 316 316 317 317 317 316 316 316 315 314 314 314 314 315 315 315 314 314 313 312 312 312 312 313 313 314 314 314 314 314 313 313 312 312 313 313 314 315 315 314 314 314 313 312 311 309 307 306 306 305 304 305 305 305 305
301 301 301 300 300 300 301 301 302 304 305 306 305 304 305 306 308 309 310 310 310 310 311 312 312 309 306 305 306 308 310 310 309 309 309 309 310 309 310 311 311 311 311 312 312 311 311 312 313 314 314 314 314 314 314 314 313 312 312 313 313 313 313 313 313 314 313 313 312 312 312 312 312 313 313 313 314 313 314 313 312 312 312 313 314 315 315 314 314 313 313 312 311 308 307 306 306 305 305 305 306 306 305
301 301 301 301 301 300 301 301 302 303 304 304 305 304 305 307 308 308 309 309 309 309 309 310 310 307 305 305 306 307 308 308 308 309 308 308 306 306 306 307 308 307 307 307 308 307 307 308 309 310 310 309 309 309 310 310 311 311 310 311 311 312 312 312 312 313 313 313 312 312 312 312 312 312 312 312 313 313 314 313 312 312 311 312 312 313 313 313 313 312 313 312 311 309 307 306 306 306 305 305 306 306 305
301 301 301 301 301 301 301 302 302 302 302 302 303 305 305 306 306 306 307 308 308 308 308 307 306 304 304 305 305 306 306 306 307 307 306 306 305 304 304 304 304 304 305 306 306 306 306 306 306 307 307 306 306 306 307 308 308 309 309 309 309 310 310 311 311 312 312 313 312 311 311 311 312 312 312 312 312 313 313 313 313 312 311 311 311 311 311 311 311 311 311 311 310 308 308 307 306 305 305 304 304 304 304
301 301 301 301 301 301 302 302 302 301 302 303 304 305 305 305 305 305 306 306 306 306 305 305 304 303 303 303 304 304 305 306 307 306 306 306 306 305 304 304 304 304 305 305 306 307 306 305 304 305 305 305 305 305 306 307 308 309 308 308 308 309 310 310 310 311 311 312 312 311 311 311 311 311 311 311 312 312 312 313 313 313 312 311 310 310 310 310 310 310 310 309 309 308 308 308 307 305 304 304 304 304 304
301 300 301 301 302 301 301 301 301 300 301 302 303 304 304 304 303 303 304 304 304 303 303 303 303 302 303 303 304 304 305 305 305 305 306 307 307 307 306 305 305 304 304 304 305 305 305 305 305 307 307 307 306 306 307 308 308 309 309 308 309 309 310 310 310 310 310 311 311 311 311 311 311 311 311 311 311 311 311 312 312 313 312 312 311 310 310 309 309 309 309 309 309 308 307 307 307 305 304 304 304 304 304
300 299 300 300 301 301 300 301 302 301 302 302 302 302 302 302 302 302 302 302 302 302 302 303 303 303 303 304 304 305 305 305 305 306 306 307 307 307 306 306 306 306 306 306 306 306 306 306 307 307 307 308 308 308 308 308 308 309 309 309 309 310 310 310 310 310 310 310 310 310 310 310 310 310 310 310 310 310 311 311 311 312 312 311 310 310 310 309 309 309 309 309 308 307 307 307 306 306 305 304 304 305 304
298 298 299 299 300 301 301 301 302 302 302 302 302 301 301 301 301 301 301 301 302 302 302 303 303 304 304 304 304 304 304 303 304 305 306 306 306 306 306 306 306 306 306 306 306 306 306 306 306 305 305 305 306 307 307 307 307 307 307 308 308 309 310 310 310 309 310 310 310 310 309 309 309 310 310 310 310 310 310 310 310 311 311 310 310 310 309 309 309 309 309 308 308 308 307 307 307 308 306 305 305 304 304
297 298 299 299 300 301 301 301 301 301 301 302 301 301 300 300 301 301 301 302 302 302 303 303 304 304 304 305 304 303 302 302 302 303 305 305 305 305 305 305 304 304 304 304 303 303 303 304 305 305 305 305 305 305 305 306 306 307 307 307 308 308 309 309 308 308 309 309 309 309 309 308 308 308 309 309 310 309 309 309 309 309 310 309 309 309 309 309 308 308 308 308 308 309 309 308 307 308 307 306 305 304 303
297 299 299 299 299 300 300 300 300 300 300 300 300 300 300 300 301 301 302 302 303 303 303 303 304 304 305 304 304 302 301 301 301 302 304 304 304 303 304 304 304 304 304 303 303 303 303 304 305 306 306 305 305 304 305 306 306 306 306 306 307 307 308 308 308 307 308 309 309 309 309 308 308 308 308 308 308 308 308 308 308 308 309 309 309 309 308 308 308 308 309 309 309 310 309 308 307 307 307 306 305 303 303
298 298 298 298 298 299 299 299 299 299 299 299 299 299 300 301 301 301 301 302 303 303 303 304 304 304 305 304 303 302 302 301 301 301 303 303 303 303 303 304 304 303 304 304 303 302 302 303 304 305 304 305 305 305 305 305 305 305 305 305 306 306 307 307 308 307 308 308 309 309 309 308 308 307 307 307 308 308 308 308 308 308 308 308 308 308 307 308 308 308 309 310 310 309 308 308 307 307 307 305 304 303 303
297 297 297 297 297 297 297 298 298 298 298 298 298 299 300 300 300 300 301 301 302 303 304 304 304 305 304 304 303 302 302 302 302 301 303 303 304 303 303 303 303 303 303 303 303 303 302 303 303 303 303 304 305 305 305 304 304 304 305 305 305 305 306 307 307 308 308 308 309 310 309 308 307 307 307 307 307 307 307 307 307 308 308 308 307 307 307 307 308 308 308 309 309 309 308 307 306 306 306 305 304 303 302
297 297 297 297 297 297 298 298 298 299 298 298 298 299 299 299 298 299 300 301 303 304 304 305 305 304 303 303 302 301 302 303 303 301 302 303 304 304 304 303 303 302 303 303 303 303 303 303 303 303 304 304 304 304 304 304 304 304 304 304 305 305 306 306 307 308 308 308 308 308 307 307 306 305 305 306 306 306 306 306 307 307 307 307 307 307 307 307 307 307 307 307 307 307 307 306 305 305 304 304 303 302 301
296 297 297 297 298 298 298 299 299 299 299 298 298 298 298 298 298 299 301 302 303 304 305 305 304 303 302 302 301 302 302 303 303 302 303 303 304 304 304 303 303 303 304 304 304 304 304 303 303 303 303 304 304 304 304 303 303 303 304 304 305 305 306 306 306 306 307 307 307 306 305 304 304 303 304 304 305 305 305 306 306 306 307 306 306 306 307 307 307 307 307 307 306 306 306 306 305 305 304 303 302 301 300
297 298 298 298 299 299 300 300 300 300 299 299 298 298 299 300 300 301 302 303 304 305 304 304 303 302 302 302 302 302 303 303 303 303 303 303 303 304 304 304 305 305 305 304 303 303 303 302 302 302 302 303 303 303 303 303 303 303 304 304 304 304 305 305 305 305 305 305 305 304 303 302 303 302 303 303 304 304 304 305 305 305 306 306 306 306 306 306 306 306 306 306 305 305 305 305 304 304 303 301 300 299 299
299 299 299 300 300 300 301 301 301 300 300 300 301 301 302 302 303 303 303 303 303 303 303 303 303 303 303 303 303 303 303 303 304 304 303 303 302 303 304 305 305 304 304 303 303 302 302 301 301 302 302 302 302 302 303 303 302 303 303 303 303 304 304 304 304 303 303 303 302 302 301 301 302 302 301 302 303 303 303 303 304 304 304 305 305 305 304 304 304 304 304 303 303 303 302 302 302 302 300 299 298 297 296
300 300 301 301 301 301 301 301 301 301 302 302 302 303 303 303 303 303 303 303 303 303 303 303 303 303 303 304 303 303 303 303 303 304 303 302 303 304 305 304 304 303 303 303 302 302 301 301 301 301 301 301 301 302 302 302 302 302 302 303 303 303 303 303 302 302 302 301 301 301 301 301 301 301 301 301 302 302 302 302 302 303 303 303 302 302 302 302 302 302 302 301 301 301 301 300 300 300 299 298 297 297 296
300 301 301 301 301 302 301 301 302 302 302 303 303 303 303 303 303 303 303 303 303 303 304 304 303 303 304 303 303 303 302 302 302 303 303 304 304 305 304 304 303 303 303 302 302 301 301 300 300 300 300 301 301 301 301 302 301 301 302 302 302 302 302 301 301 301 300 300 300 300 300 301 301 301 301 301 301 301 301 301 301 301 302 301 301 301 301 301 301 301 301 301 301 300 300 300 299 299 298 298 297 297 296
301 301 301 301 301 302 302 302 302 302 302 303 303 302 302 302 303 303 303 303 303 303 304 304 303 303 303 303 303 302 302 302 302 303 304 304 304 304 303 303 302 302 302 301 301 301 300 300 300 300 300 301 301 301 301 301 301 301 301 301 301 301 300 300 300 299 299 299 299 299 300 300 301 301 301 301 301 301 301 301 301 301 301 301 301 301 301 301 301 301 300 300 300 300 299 299 299 298 298 298 297 297 297
301 301 301 302 302 302 302 302 302 302 302 302 302 302 302 302 302 302 302 302 302 302 303 303 303 303 303 302 302 302 302 302 302 303 303 303 303 303 302 301 301 301 300 299 298 299 300 300 301 301 301 301 302 301 301 301 300 300 300 300 299 299 299 299 299 298 299 299 299 299 299 300 300 300 300 300 300 300 300 300 300 300 300 301 300 300 301 301 300 300 300 299 299 299 298 298 298 297 297 297 297 297 297
302 302 302 302 302 302 302 302 302 302 302 302 302 302 302 302 302 302 302 302 302 302 302 303 303 303 303 302 302 301 301 301 302 303 303 302 302 302 301 300 299 299 299 298 298 299 301 301 302 301 301 301 301 301 301 300 300 299 299 298 298 298 298 298 297 298 298 298 298 299 299 300 300 300 300 300 300 300 300 300 300 300 300 300 300 300 300 300 300 300 299 299 298 298 298 298 297 297 297 297 296 297 296
302 302 302 302 302 302 302 302 302 302 302 302 303 303 303 303 302 301 302 303 303 303 303 302 302 303 303 302 302 301 301 301 302 302 302 301 301 301 300 299 298 298 299 299 300 301 301 301 301 301 301 301 301 300 299 299 298 298 298 297 297 297 297 297 298 298 298 298 299 299 299 300 300 300 300 300 300 300 300 300 300 300 300 300 300 300 300 300 300 299 299 299 298 298 297 297 296 296 296 296 296 295 295
302 302 302 302 302 302 302 302 302 302 303 302 302 302 303 303 303 302 303 303 304 304 303 302 302 302 302 302 301 301 301 301 301 302 302 301 301 301 300 299 299 299 299 300 300 300 300 300 300 300 300 300 299 298 298 298 297 297 297 297 297 297 297 298 298 298 298 298 299 299 300 300 300 300 300 300 300 300 300 300 300 300 300 300 300 300 300 300 300 299 299 298 298 297 296 296 295 295 295 295 295 294 294
302 302 302 302 302 303 303 303 302 302 302 302 301 301 302 303 303 303 303 303 304 303 302 302 301 301 301 301 301 300 300 300 301 302 302 302 303 304 303 301 300 299 299 299 299 298 298 298 299 299 297 297 296 296 297 296 296 296 297 297 297 297 298 298 298 299 299 299 299 300 300 300 300 300 300 299 298 299 300 300 300 300 300 300 300 300 300 299 299 299 299 298 297 297 296 296 295 295 295 294 294 293 293
302 302 302 303 303 303 303 303 303 303 302 301 301 302 303 303 303 303 303 303 302 302 301 301 301 301 301 301 301 301 299 300 302 303 304 305 304 304 302 300 299 299 299 298 297 295 294 295 296 297 296 295 295 295 295 295 295 296 297 297 298 298 299 299 299 299 299 299 299 299 299 300 300 300 299 299 299 299 299 299 300 300 300 300 299 299 299 299 299 298 298 297 296 295 295 294 294 295 294 294 293 293 293
302 302 303 303 303 302 302 302 302 302 301 301 301 303 303 303 302 303 302 302 302 300 301 301 302 302 302 302 302 301 299 300 302 303 304 303 302 300 300 299 299 299 298 297 296 295 295 295 296 296 296 295 295 295 294 295 295 296 297 298 298 299 299 299 299 299 299 299 299 299 299 299 300 300 300 300 299 299 299 299 299 299 299 299 299 299 299 299 298 297 296 295 294 294 294 293 293 294 294 294 293 293 293
301 302 302 302 302 302 302 302 302 301 301 301 301 302 302 302 302 302 302 302 302 302 302 303 303 303 302 302 301 301 300 300 302 303 301 300 298 298 299 300 299 298 297 296 295 295 294 295 296 296 296 296 296 296 296 296 297 297 298 299 299 299 299 299 299 299 299 299 299 299 299 299 299 299 299 300 299 299 299 299 299 299 299 299 298 299 298 298 297 296 295 294 294 294 294 293 294 294 294 294 294 293 294
301 302 302 302 302 301 302 302 301 300 300 301 301 302 302 302 302 303 302 302 302 302 302 302 302 301 301 301 300 300 300 300 300 300 299 299 298 299 300 300 299 299 298 297 296 295 295 295 296 296 296 297 297 297 297 297 298 298 298 299 299 299 299 299 299 299 298 299 299 298 299 299 299 298 298 298 299 299 299 299 299 299 298 298 298 298 297 297 296 295 295 294 294 294 294 294 293 294 294 294 294 294 294
302 302 302 301 301 301 301 301 301 301 301 301 301 301 302 302 303 303 303 303 303 303 302 302 302 301 301 301 300 300 300 300 299 298 299 299 299 300 299 299 299 300 299 297 296 295 295 295 295 295 295 296 296 297 297 298 298 298 298 298 298 299 298 298 298 297 297 297 298 299 299 299 299 299 298 299 299 298 298 298 298 298 298 298 298 297 296 296 296 295 294 294 294 294 294 294 294 294 294 293 293 293 293
302 302 302 301 301 301 301 301 301 302 302 302 301 303 303 304 304 303 303 303 303 303 302 302 301 300 300 301 301 300 300 299 299 298 298 298 298 298 297 297 297 297 297 297 296 295 294 294 295 295 295 296 296 297 298 298 299 298 298 298 298 298 298 298 297 296 297 297 298 299 299 299 299 298 298 298 298 298 298 298 298 297 297 297 297 297 296 296 296 295 294 294 293 293 294 294 294 293 293 293 292 292 293
302 302 301 301 301 301 301 302 302 302 303 303 304 304 304 304 303 303 303 302 302 302 301 300 300 300 300 300 300 299 299 298 297 296 298 297 297 296 296 296 296 296 295 295 294 294 294 294 295 295 296 296 297 297 298 298 299 299 298 298 298 298 298 298 298 297 298 299 299 299 298 298 298 298 298 298 298 298 298 298 297 297 297 297 297 297 297 296 296 296 295 294 294 294 294 294 294 294 293 293 292 292 293
302 302 302 302 302 302 302 302 302 302 302 303 303 303 303 302 302 302 302 302 302 302 302 301 300 299 300 299 299 299 298 298 297 297 297 297 297 296 296 296 296 295 295 295 294 294 294 294 295 295 296 297 297 298 298 298 298 298 298 298 298 298 298 298 298 298 298 298 298 298 298 298 298 297 298 298 298 298 297 297 297 297 296 297 296 296 297 296 296 296 296 295 295 295 294 294 294 294 293 293 293 293 293
302 302 302 302 302 302 302 302 302 302 302 302 302 302 301 301 302 302 302 303 303 303 303 301 300 300 299 299 299 298 298 298 298 297 297 296 296 295 294 294 295 295 296 296 295 294 295 295 294 295 296 296 297 298 298 298 297 296 297 298 298 298 298 298 298 298 298 298 298 298 298 297 297 297 297 297 297 297 297 296 296 296 296 296 296 296 296 296 296 295 295 295 294 294 294 294 294 294 293 293 293 293 293
302 302 301 301 302 303 303 303 302 302 302 302 302 302 302 302 302 302 303 303 303 303 303 302 301 300 299 298 298 298 298 298 297 296 296 295 294 294 293 294 294 295 295 295 295 294 294 294 294 295 296 296 296 297 297 297 297 296 297 298 298 298 298 298 298 298 298 298 297 297 297 297 297 297 297 296 296 296 296 296 296 296 296 296 296 296 296 296 295 295 294 294 294 294 294 294 293 293 293 292 292 292 292
301 301 301 302 302 303 303 303 303 303 303 303 303 303 302 303 303 303 303 303 302 302 302 302 301 300 299 298 298 297 297 297 296 296 295 294 294 293 293 293 294 294 294 294 294 293 293 293 294 295 295 296 296 296 296 297 297 297 298 298 297 297 298 298 298 298 297 297 297 297 297 297 297 296 296 296 296 296 296 296 296 296 296 296 296 295 295 295 295 294 294 294 294 294 294 294 293 292 292 291 291 291 291
301 301 301 302 302 302 302 302 302 303 303 303 303 303 303 303 303 303 302 302 302 302 302 302 301 300 299 298 298 297 297 296 295 294 293 293 293 293 293 293 294 294 293 293 293 293 292 293 293 295 295 296 295 296 296 296 297 297 297 297 297 297 297 297 297 297 297 297 297 298 298 297 297 297 296 296 296 296 296 296 296 296 296 296 295 295 295 295 294 294 293 293 293 293 293 293 292 291 291 290 290 290 290
301 301 301 301 301 301 301 301 302 302 303 303 303 303 303 303 303 303 302 302 302 302 302 301 301 299 299 298 297 297 296 295 294 293 292 292 292 293 293 293 293 293 292 292 292 292 292 293 293 295 295 295 295 296 296 296 297 297 297 297 297 297 297 297 297 297 297 297 297 297 298 298 297 297 297 296 296 296 296 296 296 295 295 295 295 295 295 294 293 293 293 292 292 291 291 291 291 290 290 290 289 289 289
301 301 301 301 302 302 302 303 303 303 303 303 304 303 303 303 302 302 302 302 302 302 301 301 300 299 299 298 297 297 296 295 294 293 292 292 292 293 293 293 293 292 292 292 292 292 292 292 293 294 295 295 295 295 296 296 296 297 296 296 296 297 297 297 297 297 297 297 297 297 297 297 297 297 296 296 296 295 295 295 295 295 294 294 293 293 293 292 292 291 291 291 291 290 290 291 290 290 290 290 290 290 289
302 302 302 302 302 302 303 304 304 304 304 304 303 303 303 303 302 302 302 302 302 301 301 300 300 299 299 298 297 297 296 294 293 293 293 293 293 293 293 293 292 292 292 292 292 292 292 292 293 294 295 295 295 295 296 296 296 296 297 296 296 296 296 297 297 297 297 297 297 296 296 296 296 296 296 295 295 294 294 294 293 293 292 292 291 291 291 291 291 290 290 290 290 290 290 291 290 290 290 290 290 290 290
301 302 301 302 302 303 304 304 304 304 303 303 303 303 302 302 302 302 302 301 301 301 301 300 299 299 298 297 297 296 295 294 293 293 293 293 292 292 292 293 292 292 292 292 292 292 292 293 293 294 295 295 295 296 296 296 296 296 296 295 295 295 295 296 296 296 296 296 296 296 295 295 295 294 294 294 293 293 293 292 292 291 291 291 290 290 290 290 290 290 290 290 290 290 290 290 290 290 290 290 290 290 290
301 301 301 302 302 303 304 304 304 304 303 303 303 302 302 302 302 302 302 301 301 300 300 300 299 298 297 297 297 296 295 294 293 293 293 292 292 292 292 292 292 292 292 292 292 292 292 293 294 294 295 295 295 296 295 295 295 295 295 295 294 294 294 295 295 295 295 295 294 294 294 293 292 292 292 292 292 292 291 291 291 291 291 291 290 290 290 290 290 290 290 290 290 290 290 290 290 290 290 290 290 290 290
301 301 302 302 303 304 304 304 303 303 303 302 302 302 302 302 302 302 301 301 301 300 300 299 299 298 296 296 296 296 294 294 293 293 292 292 292 292 292 292 292 292 292 292 292 292 292 292 293 293 293 294 294 293 293 293 293 293 293 293 294 294 293 293 293 293 294 293 293 292 292 292 291 291 291 291 291 291 291 291 290 291 291 290 290 290 289 289 289 289 289 289 289 289 289 289 289 289 289 289 289 289 289
301 302 302 303 303 303 303 303 303 303 303 303 303 302 302 302 302 302 301 300 300 299 299 299 299 298 296 295 295 295 294 293 293 292 292 292 292 292 291 291 291 292 292 292 292 292 291 291 291 290 291 291 291 291 291 291 291 291 292 292 293 293 293 292 292 292 292 293 293 292 293 293 292 292 292 292 291 291 291 291 291 290 290 290 290 289 289 288 288 288 288 288 288 288 288 288 289 289 288 288 288 289 288
301 301 302 303 303 303 303 303 303 303 302 303 303 303 303 303 302 301 301 299 299 298 298 298 298 297 296 295 294 294 294 293 292 292 292 292 292 292 291 291 291 291 291 291 291 291 290 290 289 289 289 289 289 289 290 290 290 291 291 292 292 292 292 292 292 292 292 292 293 293 293 293 293 293 292 291 291 291 291 290 290 289 289 289 289 288 288 288 287 287 287 287 288 287 288 288 288 288 288 288 288 288 288
301 301 301 302 302 302 302 302 302 302 302 302 303 303 303 303 302 301 300 299 298 297 297 296 296 295 295 294 294 294 293 292 292 292 292 292 291 291 291 291 291 291 291 291 290 290 289 289 289 288 288 289 289 290 290 291 291 292 293 293 293 293 293 293 293 292 293 292 292 292 292 292 292 291 291 290 290 290 290 290 289 289 288 288 287 287 287 287 287 287 287 287 287 287 287 287 287 287 287 287 287 287 287
300 300 301 301 301 302 302 302 302 302 302 302 302 303 303 302 302 300 299 298 297 297 296 296 295 294 294 294 293 293 292 292 292 292 291 291 291 291 290 291 291 291 291 291 291 291 291 290 290 291 291 291 292 293 293 294 294 294 294 294 294 293 293 293 293 293 293 292 292 292 291 290 290 290 290 289 289 289 288 288 288 288 287 287 286 286 286 286 287 287 287 287 287 287 287 287 287 287 287 287 287 287 287
300 300 300 300 301 301 301 301 302 302 302 302 302 302 302 301 300 299 298 297 297 296 296 295 295 294 294 293 293 292 291 291 291 291 291 290 290 290 290 291 291 292 292 292 293 293 293 293 293 293 293 293 293 293 293 293 293 293 292 292 292 292 292 292 291 291 291 291 291 290 290 289 289 289 288 288 288 287 287 287 286 286 286 286 286 286 286 286 287 287 287 287 287 287 287 287 287 287 287 287 287 286 287
300 300 300 300 300 300 301 301 301 302 302 302 302 301 300 299 298 297 297 296 296 295 295 295 294 294 294 293 292 291 291 290 290 290 290 290 290 290 290 291 292 292 293 293 293 293 293 293 292 292 291 291 292 292 292 291 291 291 290 290 290 290 290 290 290 290 290 290 290 289 289 288 288 288 287 286 286 286 286 286 286 286 285 286 286 286 285 285 285 286 286 287 287 287 287 287 287 287 286 286 286 286 286
299 299 299 300 300 300 300 301 301 302 302 301 300 299 298 297 297 296 296 295 295 295 294 294 294 293 293 292 291 290 290 290 289 289 289 289 290 290 290 291 291 292 292 292 292 292 291 291 291 290 291 291 291 291 290 290 289 289 290 289 289 289 290 290 290 290 290 289 289 289 288 287 287 287 286 285 285 285 285 285 285 285 285 285 285 285 285 285 285 285 285 286 287 287 287 287 287 287 286 286 286 286 285
299 299 300 300 300 301 301 301 301 302 301 300 299 297 297 296 296 295 295 295 294 294 294 294 294 293 292 291 290 289 289 289 289 289 289 289 290 290 290 291 291 291 291 291 291 291 290 290 290 290 290 290 290 290 290 289 289 289 289 289 289 289 289 289 290 290 289 289 288 288 287 286 285 285 285 285 285 284 284 284 284 284 284 285 285 284 284 284 285 285 285 286 286 287 287 287 287 287 286 286 286 285 285
299 300 300 300 301 301 301 301 301 301 299 298 297 297 296 295 295 294 294 294 294 294 294 294 293 292 291 290 289 289 289 289 289 289 289 289 289 290 290 290 290 291 291 291 291 290 290 290 290 290 290 290 289 289 289 289 289 289 289 289 289 289 289 289 289 289 289 289 288 287 286 285 285 285 285 285 284 284 284 284 283 283 284 284 283 283 283 284 284 285 285 286 286 286 287 287 287 286 286 286 285 285 284
300 300 300 300 300 300 301 301 300 300 298 297 296 296 295 295 294 294 294 293 294 294 294 293 292 291 290 289 288 288 288 289 289 289 289 289 289 289 290 290 290 290 291 291 291 290 290 289 289 289 289 289 289 289 289 289 289 289 289 289 289 289 288 289 289 289 288 288 287 286 286 285 285 285 284 284 284 283 283 283 283 283 283 283 283 283 283 283 284 285 285 286 286 286 287 287 287 286 285 285 285 284 284
299 300 300 300 300 301 301 300 300 298 297 296 296 295 295 295 295 294 294 293 293 293 293 292 291 290 289 289 288 288 288 289 289 290 290 289 289 289 289 290 290 290 291 291 290 290 290 289 289 288 289 289 289 289 289 288 288 288 288 289 289 289 288 288 288 288 287 287 286 286 285 285 285 285 284 284 283 283 283 283 282 282 283 282 282 282 282 283 284 285 285 285 286 286 286 286 286 285 285 284 284 284 284
299 300 300 300 301 301 301 300 299 297 296 296 296 296 296 296 295 294 293 293 293 293 292 291 290 289 288 288 288 288 288 289 289 289 289 289 289 289 289 290 290 290 290 290 290 290 290 289 289 289 289 289 289 289 288 288 288 288 288 289 289 289 288 288 287 286 286 286 286 285 285 285 285 285 284 284 283 283 282 282 282 282 282 282 282 282 282 283 284 285 285 285 286 285 285 286 286 285 285 284 284 283 283
300 300 300 300 301 301 301 300 298 298 297 297 297 297 297 296 295 294 293 293 292 291 290 289 288 287 287 288 288 288 289 289 289 289 289 289 289 289 289 289 290 290 290 290 290 290 289 289 289 290 290 289 289 289 289 288 288 288 289 289 289 289 288 287 286 286 285 285 285 284 284 284 284 284 284 284 283 283 282 282 282 282 282 283 282 281 282 283 284 284 285 285 285 285 285 285 285 285 284 284 283 283 283
300 300 300 300 300 301 300 299 298 297 297 297 297 297 296 296 295 293 292 292 291 289 288 288 287 287 287 287 288 288 289 289 289 289 289 289 289 289 289 289 289 290 290 290 290 290 289 289 290 289 290 290 290 289 289 289 289 289 289 289 289 289 287 286 285 285 284 284 284 283 283 283 283 284 284 283 283 282 282 281 281 282 282 282 282 281 282 283 283 284 284 284 284 284 284 285 285 285 284 284 283 283 283
299 300 300 300 300 301 299 298 297 297 297 297 297 297 297 296 296 295 292 291 290 289 288 288 288 288 288 288 288 289 289 289 290 289 289 289 289 289 289 289 290 290 290 290 290 290 290 290 290 290 290 290 290 289 289 289 289 289 288 288 288 288 287 286 285 284 284 284 283 283 283 283 283 283 283 283 282 282 281 281 281 282 283 282 281 281 282 282 283 283 284 284 284 283 284 284 285 284 284 283 283 283 283
Wind_Speed
5 5 6 6 6 6 5 4 2 2 2 2 3 3 5 7 8 9 9 8 8 7 6 6 6 5 4 3 3 3 3 2 2 2 2 1 1 1 1 1 2 3 3 4 5 5 5 5 5 5 5 5 5 5 6 7 8 8 7 7 7 6 7 7 8 8 8 8 8 8 7 7 6 7 7 8 8 7 7 6 6 6 6 7 8 9 8 8 8 9 8 8 8 8 8 7 7 6 6 6 5 5 4
3 4 5 5 5 5 3 2 1 2 3 3 2 3 5 6 8 9 9 9 9 8 7 8 8 7 4 3 3 4 3 3 2 2 2 2 2 2 1 1 2 3 4 5 4 3 4 4 4 4 4 4 5 5 6 7 8 8 7 7 7 6 7 7 7 7 8 7 7 8 8 7 7 6 7 7 7 7 7 7 6 7 7 8 9 11 11 10 10 9 9 8 7 6 6 7 8 7 7 6 6 5 5
3 4 5 6 6 5 3 1 2 4 4 4 3 3 4 6 7 8 9 8 8 7 8 9 9 6 4 4 4 4 5 4 2 2 2 2 2 1 1 1 2 2 3 3 2 2 2 2 3 4 4 3 4 5 6 7 8 8 8 7 7 7 8 8 7 7 7 7 7 8 8 7 7 7 6 7 7 7 7 7 7 7 8 8 9 10 11 11 11 11 11 9 6 5 5 6 7 8 8 7 6 6 5
5 5 6 7 7 6 4 2 2 3 4 4 4 4 5 6 7 7 7 7 7 6 8 8 6 3 3 3 4 4 4 2 0 0 0 1 2 3 2 1 1 1 2 2 2 2 2 2 2 3 3 3 3 4 5 6 7 7 7 7 7 8 9 9 9 9 9 8 8 8 8 8 8 8 7 7 7 8 8 7 7 7 8 9 10 10 11 12 11 11 12 10 8 6 5 5 5 6 7 7 6 6 5
5 7 8 8 8 7 5 3 2 2 1 1 2 4 4 4 4 4 4 5 5 5 4 2 1 4 3 2 1 1 2 4 5 3 3 4 5 6 5 4 3 3 3 2 1 1 1 0 1 2 2 2 2 3 3 4 5 6 7 8 8 9 9 9 9 9 9 9 8 8 8 9 9 9 9 8 8 8 8 8 8 8 7 8 9 9 11 11 10 9 10 11 10 9 7 6 5 4 5 6 5 5 5
7 8 8 8 7 7 6 5 4 5 4 3 2 1 1 1 1 2 1 1 2 3 5 7 8 9 8 7 6 5 6 6 6 5 5 5 4 3 3 2 2 1 1 0 0 0 1 2 2 2 2 3 3 3 3 4 5 5 6 6 7 8 8 8 8 9 9 9 9 8 9 10 10 10 9 9 8 8 8 9 9 8 8 8 8 8 9 10 10 9 9 9 9 9 10 9 7 5 5 5 6 6 6
8 9 8 7 7 8 8 8 8 9 7 6 5 5 5 6 6 6 6 7 7 8 9 9 9 8 8 7 5 4 4 4 4 4 4 4 2 1 0 0 1 1 1 1 1 1 1 1 1 2 2 2 2 2 3 4 5 5 4 4 5 7 8 8 8 9 9 9 9 8 9 10 11 12 10 9 8 8 8 9 10 9 8 8 8 9 10 11 11 10 10 9 9 9 10 11 11 9 8 8 8 8 8
8 8 8 8 8 8 9 9 9 9 9 8 7 7 7 8 7 7 7 6 7 8 8 7 7 7 6 5 5 4 3 2 2 1 1 1 1 0 0 1 1 1 1 0 1 1 1 2 2 2 1 1 1 2 3 3 4 4 4 5 6 6 6 7 8 9 10 10 9 8 10 11 13 12 11 10 9 9 10 10 9 9 8 8 9 9 11 11 11 11 12 12 11 10 10 11 12 12 11 10 10 8 8
7 8 8 8 8 8 8 8 8 8 8 8 8 8 8 7 6 6 6 6 6 7 7 7 6 6 5 4 3 3 2 1 1 1 1 0 1 1 1 1 1 1 1 1 1 1 1 2 2 3 3 3 3 3 4 4 5 5 6 7 8 8 7 7 8 9 10 10 10 10 10 11 12 11 12 12 12 10 10 10 10 9 8 8 8 9 9 10 12 12 13 14 14 13 11 12 14 13 12 12 11 9 8
6 6 6 7 8 7 7 8 8 9 8 8 8 8 7 6 5 6 6 7 7 7 6 6 6 5 4 4 3 3 2 2 2 2 1 1 2 2 2 3 3 3 3 3 3 4 4 4 4 5 6 6 6 5 6 6 6 7 8 9 10 10 9 9 9 10 10 10 10 10 10 10 11 12 13 13 13 12 11 11 10 9 8 8 8 9 9 10 11 12 12 13 13 14 12 12 14 15 13 12 11 11 8
5 6 7 7 8 8 8 8 9 9 8 8 7 7 5 4 4 5 6 7 7 6 6 6 6 5 5 5 4 4 4 4 4 4 3 3 3 3 3 4 4 4 4 4 4 5 4 4 4 4 4 5 5 6 5 5 6 6 7 8 8 10 10 10 10 10 10 10 9 10 9 10 11 12 13 14 14 13 11 10 10 9 9 8 8 8 9 9 10 10 12 12 13 14 12 12 12 14 13 11 11 12 11
6 8 9 9 9 9 9 9 9 9 8 8 7 6 4 3 4 5 6 6 6 6 6 6 6 6 6 6 5 5 5 4 4 4 3 3 3 3 3 4 4 4 3 3 3 3 3 3 3 3 3 3 4 4 4 5 5 6 6 6 7 8 9 10 9 9 10 10 9 10 10 11 11 12 13 13 14 14 12 11 11 10 9 9 8 8 9 10 10 10 11 11 12 13 12 11 11 10 11 10 10 12 13
9 10 10 10 9 9 9 9 9 9 8 7 6 5 3 3 4 5 6 6 7 7 7 8 8 7 7 7 6 5 4 4 4 4 4 3 3 3 3 3 3 3 2 2 1 2 3 4 4 5 5 4 4 4 5 5 6 6 6 6 6 7 8 9 9 8 9 10 10 10 11 11 12 12 13 14 14 13 13 12 12 10 9 9 8 9 10 10 9 9 9 10 10 10 11 11 10 9 10 10 10 11 12
10 11 10 10 10 9 9 9 9 9 8 6 5 4 4 4 5 5 5 6 7 8 9 9 9 9 9 8 7 5 5 5 5 4 4 3 3 2 2 3 3 2 2 1 1 2 3 4 5 5 4 4 5 5 6 6 6 7 6 6 6 6 7 8 9 9 9 10 10 9 10 11 12 11 12 13 14 14 13 12 11 10 9 9 9 9 10 10 9 9 9 9 9 9 10 9 8 8 8 9 9 8 9
10 11 11 11 10 9 9 9 9 9 8 7 6 6 6 5 5 5 6 7 8 9 9 10 10 10 9 8 7 6 6 5 5 4 4 3 2 2 2 2 2 1 1 2 2 3 3 4 4 4 4 5 6 6 6 7 7 7 7 6 6 6 6 7 8 9 9 10 10 9 10 11 11 10 11 13 15 14 13 12 12 11 9 9 9 9 10 11 12 12 11 11 10 9 8 8 7 7 7 7 7 6 7
9 10 10 10 10 10 10 10 10 10 10 10 8 7 6 6 6 6 7 7 8 9 10 10 11 10 9 8 7 6 6 6 5 4 3 2 2 2 2 2 2 2 4 5 5 4 4 3 3 4 5 6 6 6 6 7 8 8 7 7 6 6 6 6 7 8 9 10 10 10 10 11 11 11 11 12 13 13 13 13 13 11 9 9 9 10 10 11 12 12 12 12 11 9 8 7 7 7 6 5 4 5 5
10 11 11 11 11 10 10 11 12 13 12 10 9 7 8 8 8 8 8 8 9 10 11 11 11 10 8 7 6 6 6 6 5 4 3 2 1 2 2 2 4 6 8 8 6 5 5 4 4 5 6 7 7 6 5 6 8 9 7 7 6 6 6 6 6 6 7 8 9 10 10 10 10 10 9 9 10 10 11 11 10 9 8 8 8 9 10 9 9 9 8 7 6 6 5 5 5 5 3 2 1 1 1
12 12 11 11 10 9 10 11 12 12 11 10 9 8 9 10 10 10 9 9 9 10 10 10 9 9 7 6 6 5 5 4 4 3 2 1 1 1 2 5 8 9 9 8 7 7 6 7 7 7 7 7 6 6 6 6 7 8 7 6 6 6 6 6 6 6 6 6 7 8 8 9 9 9 8 8 8 8 8 7 6 6 5 5 5 6 5 5 4 4 4 4 4 5 4 4 3 3 2 3 3 3 4
12 12 11 10 10 9 10 11 11 10 10 9 9 9 10 10 10 9 8 8 8 8 9 9 9 8 7 6 5 4 3 2 1 1 2 2 1 2 6 8 8 7 7 6 6 7 8 8 8 8 7 7 7 7 7 7 7 7 7 6 6 5 5 5 5 5 5 5 5 6 7 8 8 7 7 7 8 8 7 6 6 6 6 6 6 5 5 5 5 5 5 5 5 6 6 6 7 7 6 5 5 6 6
11 11 11 10 10 9 10 11 10 9 9 9 9 9 9 9 8 7 7 6 6 7 8 8 9 8 7 6 4 3 1 0 1 3 3 1 3 7 8 8 7 5 5 5 5 6 7 7 7 6 7 7 8 8 8 8 7 7 6 5 5 5 4 4 3 3 3 3 4 4 6 7 6 5 6 7 7 7 7 6 6 6 7 6 6 6 7 7 7 7 6 6 6 6 6 6 7 8 8 7 6 6 5
10 10 10 10 10 10 10 10 10 9 9 9 9 9 9 8 7 6 6 6 6 6 7 8 8 7 6 4 3 1 0 2 3 3 1 4 7 9 7 6 5 4 4 4 5 5 5 5 5 5 6 6 7 7 7 7 7 6 5 5 4 4 3 3 2 2 2 3 3 3 5 6 5 4 5 6 6 6 6 6 6 6 7 7 8 8 9 10 9 8 8 7 7 7 7 7 6 7 7 6 6 4 4
10 10 10 10 10 10 10 10 9 8 8 8 8 8 8 7 6 6 6 6 6 6 7 7 7 6 4 3 2 1 2 2 2 2 5 7 8 7 5 4 4 4 4 4 4 3 3 3 4 5 6 6 6 6 5 5 5 5 5 4 4 3 2 2 2 2 2 2 3 3 5 5 4 4 5 5 5 5 5 5 5 6 7 8 9 9 10 11 10 8 7 7 7 7 7 7 7 7 6 5 5 5 5
11 10 10 10 10 10 9 9 9 8 8 8 7 7 7 7 6 6 6 6 6 6 6 6 5 5 4 3 2 2 2 2 3 6 8 8 7 5 4 3 3 4 4 3 2 2 3 4 4 4 5 6 6 5 4 4 4 4 4 3 2 2 1 1 1 1 1 2 2 2 3 4 4 3 4 5 5 5 5 5 6 6 8 9 10 10 9 9 9 8 7 6 6 6 6 6 7 6 5 5 6 6 6
11 10 10 10 10 10 9 9 9 9 8 8 7 7 7 7 7 7 7 7 7 6 6 5 5 4 4 3 3 2 3 4 6 8 8 7 6 5 5 4 4 4 3 2 1 2 3 3 4 4 4 5 5 4 4 3 3 3 3 2 2 1 1 1 0 0 1 1 1 1 2 3 4 4 5 5 5 5 6 6 7 7 8 8 8 8 8 8 8 8 6 5 5 6 6 6 6 5 4 5 6 6 6
10 9 9 9 9 9 9 9 9 9 8 8 7 7 7 7 7 8 7 7 7 7 6 5 4 4 4 3 3 3 4 5 6 6 6 6 5 6 7 6 4 3 2 1 1 2 2 3 3 3 3 3 3 3 3 3 2 2 2 2 2 2 2 1 1 1 1 1 2 2 3 3 4 4 5 5 5 5 5 6 7 7 7 7 7 7 7 7 7 7 6 5 5 5 5 5 4 4 4 5 5 5 5
8 8 8 8 8 8 8 8 7 7 7 6 6 6 6 6 7 7 7 7 6 6 5 4 3 2 2 2 2 2 3 3 4 4 5 5 6 6 6 5 4 2 1 1 1 2 2 2 3 3 3 2 3 3 3 2 2 2 2 2 2 2 2 1 1 1 1 2 2 2 3 3 4 4 5 5 5 5 6 6 7 7 7 7 7 7 7 6 6 6 5 5 4 4 5 5 4 4 4 4 5 5 5
7 7 6 6 6 6 6 6 6 5 5 5 5 5 6 6 6 6 6 6 5 5 4 4 3 3 3 2 2 2 2 2 3 4 5 5 5 4 3 3 2 2 2 1 2 2 2 2 3 3 2 2 2 2 2 2 2 2 2 2 2 2 1 1 1 1 1 2 2 2 2 3 3 4 4 5 5 6 6 6 6 6 7 7 7 7 7 6 5 6 6 5 5 4 5 4 4 3 3 4 4 5 4
6 6 5 5 5 5 4 4 4 4 4 4 4 5 5 5 5 5 5 5 5 5 5 5 5 4 3 3 2 2 2 3 4 5 5 4 3 3 2 2 1 2 2 2 2 2 2 2 2 2 2 2 2 2 2 2 2 2 2 2 2 2 1 1 1 1 1 1 1 2 2 2 2 3 4 4 5 5 5 6 6 6 7 7 7 7 6 6 6 6 6 5 4 4 4 4 4 3 2 2 3 3 2
4 4 4 4 4 4 4 4 4 4 4 4 5 5 5 5 5 5 5 6 6 7 7 6 6 4 3 2 2 3 3 4 5 5 4 3 2 2 2 2 2 2 2 2 2 3 3 3 3 2 2 2 2 1 2 2 2 2 2 2 2 1 1 1 1 1 1 1 1 1 2 2 2 3 4 4 5 5 5 6 6 6 6 7 7 7 7 7 7 7 5 5 5 5 5 4 3 3 3 2 2 1 1
3 3 4 4 4 4 4 4 4 4 4 5 5 5 5 6 6 6 6 6 7 7 7 7 6 4 3 2 3 4 4 4 4 4 3 3 2 2 2 3 3 3 3 3 3 3 3 3 3 3 3 2 2 1 2 2 2 2 2 2 2 2 1 1 1 1 1 1 1 2 2 3 3 3 3 4 4 5 5 5 6 6 6 6 6 6 7 7 7 6 5 4 4 5 4 4 4 4 3 3 2 2 1
3 4 4 4 4 4 5 5 5 4 4 4 5 5 6 6 7 7 7 7 7 7 6 6 5 5 3 3 3 4 4 4 4 4 3 3 3 3 3 3 3 4 3 3 3 3 3 4 3 3 3 3 2 2 2 3 3 2 2 2 2 2 1 1 2 2 2 2 3 3 3 3 3 4 3 4 4 5 5 5 6 6 6 6 6 6 6 6 6 5 4 4 4 4 4 4 5 5 4 3 3 2 2
4 4 4 4 4 5 5 5 5 5 5 5 5 6 6 7 7 7 7 7 7 6 5 5 4 4 4 3 3 4 4 4 4 4 3 3 3 3 3 3 3 4 4 4 4 4 4 4 4 4 3 3 3 3 4 4 4 4 3 3 3 2 2 2 3 3 3 4 4 4 4 4 4 4 4 4 4 4 5 5 5 5 6 6 6 6 6 6 5 4 3 3 3 3 4 5 6 6 5 4 4 4 3
5 5 5 5 5 5 5 6 6 6 6 7 7 7 7 7 7 7 7 7 6 6 5 4 3 3 3 4 4 4 4 4 4 4 4 3 3 2 3 3 3 4 5 5 5 5 4 5 5 4 4 4 3 3 4 5 5 5 4 4 4 3 3 3 4 4 5 5 5 5 4 4 4 4 4 4 4 4 5 5 5 5 5 5 5 6 6 5 5 4 3 3 3 3 3 4 6 7 6 6 6 6 5
5 5 5 5 6 6 6 6 6 7 7 7 7 7 7 7 7 7 7 7 6 6 5 4 4 4 4 4 4 4 4 4 4 4 4 4 3 3 3 4 4 4 5 5 5 5 5 5 5 5 5 5 5 5 5 5 5 5 5 5 5 4 4 4 4 4 5 5 5 5 5 4 4 4 4 4 4 4 5 5 4 4 4 4 5 5 5 5 5 3 3 3 3 3 3 4 5 7 7 7 7 6 6
6 5 6 6 6 6 6 6 6 6 7 7 7 7 7 7 7 7 7 7 7 7 6 5 5 4 5 4 4 4 4 4 4 4 5 4 4 4 4 4 5 5 5 5 5 5 5 5 5 5 5 5 6 6 6 5 5 5 5 5 5 4 4 4 5 5 5 5 5 5 5 4 4 4 4 4 4 4 5 5 4 4 4 4 4 4 4 4 4 3 3 3 3 3 4 4 5 6 7 7 7 5 6
6 6 6 6 6 7 6 6 6 6 7 7 7 7 7 7 7 7 8 8 8 8 7 6 5 5 5 5 5 5 5 5 5 5 5 5 4 4 5 5 6 6 6 6 5 5 5 5 4 5 5 5 5 5 5 5 5 6 6 6 5 4 4 5 6 5 5 5 5 5 5 4 4 3 3 3 4 4 4 4 4 4 4 4 4 4 3 3 3 3 4 4 5 5 5 5 5 6 7 7 7 6 6
7 7 6 6 7 7 7 8 8 8 7 7 7 7 8 8 8 8 8 9 9 8 8 7 6 6 6 6 6 6 6 5 5 5 6 5 5 5 5 6 6 7 6 6 6 5 5 4 4 5 5 5 5 5 6 6 6 7 7 6 6 5 5 6 5 5 5 6 5 5 4 4 4 3 3 3 4 4 4 4 4 4 5 5 4 4 4 4 4 4 5 5 6 6 5 5 5 6 6 7 7 7 7
7 7 7 7 7 7 8 8 9 8 8 8 8 8 8 8 8 9 9 9 9 9 8 8 7 6 6 6 6 6 6 6 6 5 6 6 6 6 6 7 7 7 6 6 6 6 5 5 5 5 5 5 5 6 6 7 7 7 7 6 6 6 6 5 5 5 5 5 5 5 5 4 4 4 4 4 4 4 4 5 5 6 6 6 6 5 4 4 4 5 6 6 7 7 5 5 5 5 6 6 7 7 7
8 7 7 7 7 7 8 8 8 8 8 8 8 8 9 9 9 9 9 9 9 9 8 8 7 7 7 7 6 6 6 6 6 5 6 6 6 6 7 7 7 7 7 7 7 6 5 5 5 6 5 5 6 7 7 7 7 6 6 5 5 5 5 5 4 4 5 5 5 5 5 5 5 4 5 5 5 5 5 6 6 6 7 6 6 5 5 5 5 6 6 7 7 7 6 5 5 5 5 6 6 6 6
8 8 7 7 7 7 8 8 8 8 8 8 8 9 9 9 9 9 9 9 9 9 9 8 8 7 7 7 7 6 6 6 6 6 6 6 7 7 8 8 7 7 7 7 7 6 5 5 5 6 5 5 6 7 7 7 6 5 5 5 5 5 5 5 4 4 4 5 5 5 6 6 6 5 6 6 6 7 7 7 7 7 7 6 6 5 5 5 5 6 6 6 6 6 6 6 5 4 5 5 5 6 6
8 8 8 8 8 8 8 8 9 9 9 9 9 9 10 10 10 10 10 10 10 10 9 9 8 8 7 7 7 7 6 6 6 7 7 8 8 8 9 8 8 8 8 8 7 6 6 6 6 6 5 6 6 7 7 7 6 5 5 5 5 5 5 5 4 5 5 4 4 4 5 6 6 6 7 7 7 7 7 6 6 6 6 5 5 5 5 4 4 4 5 5 5 6 6 5 5 4 4 5 5 6 6
9 9 9 9 9 9 9 9 9 9 9 10 10 10 10 10 10 10 10 10 10 10 9 9 8 8 7 7 7 7 6 7 7 8 9 9 9 9 10 10 9 9 9 8 8 7 7 7 7 7 6 6 7 7 7 6 6 5 4 4 4 5 4 5 5 5 5 4 4 4 4 5 5 6 7 7 7 7 6 5 5 4 4 4 4 4 4 4 3 3 3 3 4 5 5 5 4 4 4 5 5 6 6
10 10 10 10 9 9 9 9 9 9 9 10 10 10 11 11 10 10 10 10 10 10 9 8 7 7 7 7 7 7 7 8 8 9 9 10 10 10 10 11 10 10 10 9 8 8 8 9 9 8 7 7 6 6 5 4 4 3 3 3 4 4 4 5 6 6 5 5 5 5 4 4 5 6 7 7 7 6 5 4 3 3 3 3 3 3 3 3 3 3 2 2 3 4 4 4 4 4 4 5 5 6 6
10 10 9 9 9 8 8 8 9 9 10 10 10 10 11 11 11 11 10 10 10 10 9 8 6 5 6 7 8 8 8 9 9 9 10 10 10 10 10 11 11 11 11 10 10 9 9 9 9 8 7 6 5 4 4 3 3 2 3 3 3 4 4 5 6 6 6 5 5 5 5 4 4 5 7 8 8 7 5 3 3 3 3 3 3 3 3 3 3 3 3 3 3 3 4 4 4 4 5 5 5 6 6
9 9 9 8 8 7 8 8 9 9 10 10 10 10 10 10 10 10 10 10 9 9 9 8 7 6 6 7 8 8 8 9 9 9 9 9 10 9 10 10 11 11 11 11 10 10 9 9 8 7 6 6 5 4 4 3 3 3 3 3 4 5 4 5 5 6 6 6 5 5 5 5 5 5 6 8 9 8 6 5 4 3 3 3 3 3 3 3 3 3 3 3 3 4 4 5 5 5 5 5 5 5 6
9 8 8 8 7 7 8 8 9 9 10 10 10 10 10 10 9 9 9 8 8 8 8 8 8 8 8 7 7 7 8 8 9 9 9 9 9 9 9 10 10 10 10 10 10 9 8 8 7 5 4 4 3 3 3 3 3 4 4 4 5 6 5 5 5 5 6 6 6 6 6 6 6 5 6 7 8 9 8 6 5 4 4 3 3 2 2 2 2 2 3 3 4 4 5 5 5 5 5 6 6 5 6
8 8 7 7 8 8 9 9 10 10 10 10 10 10 10 9 9 8 7 7 6 6 7 7 8 8 8 8 7 7 8 8 9 9 9 9 9 9 9 9 9 9 9 9 8 7 6 5 4 3 3 3 3 4 4 5 6 6 6 7 7 7 6 6 6 6 6 6 6 6 7 7 6 5 6 6 7 7 7 7 6 5 4 3 3 2 2 2 3 3 3 4 4 4 5 5 5 5 6 6 6 6 6
8 7 8 8 9 9 9 10 10 10 10 10 10 9 9 9 8 7 7 6 6 6 6 7 7 7 7 8 8 7 7 7 8 8 8 8 7 7 8 8 8 8 8 7 6 6 6 5 5 5 6 7 8 8 9 9 9 10 10 9 9 8 8 8 8 7 7 7 8 7 7 7 7 6 6 5 6 6 6 6 6 5 4 4 3 3 3 3 3 3 4 4 4 5 5 6 6 6 6 6 6 7 7
8 8 8 9 9 9 10 10 10 10 9 9 9 9 8 8 8 8 8 8 8 8 7 7 7 8 8 8 8 7 6 6 6 6 6 6 6 7 7 7 7 7 7 7 7 7 9 10 10 10 11 11 11 11 11 12 11 11 11 11 11 10 10 10 10 8 8 8 9 8 8 7 7 6 6 6 6 5 5 5 5 4 4 4 4 3 3 4 4 4 4 4 4 5 5 5 5 6 6 6 6 6 7
8 8 8 9 9 9 9 9 9 9 9 8 8 8 8 8 8 8 8 8 8 8 8 8 8 8 8 8 7 6 5 5 4 4 5 5 6 6 6 7 7 7 7 8 9 9 11 11 11 11 11 11 11 11 11 11 11 11 10 10 10 10 10 10 10 9 8 8 7 7 7 6 6 6 6 6 6 5 5 5 5 4 4 4 4 3 5 5 6 5 5 5 5 5 5 5 5 5 6 6 6 6 6
8 8 9 9 9 9 9 9 9 8 8 8 8 8 8 8 8 8 8 7 7 7 7 8 8 8 7 7 6 5 3 3 3 3 4 5 5 6 6 6 7 7 7 8 9 10 10 11 11 10 10 10 10 10 10 10 9 9 9 9 9 9 9 9 8 8 7 6 5 5 5 5 5 4 4 4 5 5 6 6 5 5 4 4 4 4 6 7 7 8 7 6 6 5 5 5 5 5 5 5 5 5 6
8 8 9 9 9 9 9 9 8 7 7 7 7 8 8 8 8 8 8 7 7 6 7 7 7 6 5 5 4 2 2 2 3 3 4 5 5 5 6 6 6 6 6 7 8 8 9 9 9 9 9 9 9 9 9 8 8 8 7 8 8 8 8 8 7 6 5 4 4 4 4 4 4 4 4 4 5 5 6 6 6 5 4 4 4 5 7 8 9 9 9 8 7 6 6 5 5 5 4 4 4 5 6
9 9 9 9 9 9 9 8 7 7 6 6 7 7 7 7 7 7 7 7 7 7 6 6 5 4 3 2 1 0 1 2 3 4 4 5 5 5 5 5 5 5 5 5 6 7 7 7 7 7 7 7 7 7 7 6 6 6 6 7 7 7 7 6 6 4 4 3 3 3 3 4 4 4 4 4 4 5 5 6 6 5 5 5 5 7 9 10 10 10 9 9 8 6 5 4 4 5 5 5 5 5 6
9 9 10 10 10 10 9 8 6 5 5 5 6 6 6 7 7 7 7 7 7 6 6 5 4 2 1 1 1 2 2 2 3 4 5 5 4 4 4 3 3 3 4 4 5 6 6 6 6 6 5 5 4 4 4 4 4 5 5 5 6 6 5 5 4 3 3 3 3 3 4 4 5 5 4 4 5 5 6 6 6 6 6 6 7 9 10 10 10 10 9 9 9 8 5 4 4 4 5 5 6 6 7
10 10 11 10 10 9 8 7 5 4 4 5 5 6 6 6 6 6 6 6 6 6 5 4 2 2 1 2 3 3 3 3 3 4 4 4 3 2 2 2 1 2 2 3 4 5 5 5 4 4 3 2 2 2 2 3 3 4 4 5 5 5 4 4 3 3 3 4 4 4 4 5 5 5 4 4 5 5 6 6 6 6 6 7 7 9 10 10 10 10 10 9 9 8 6 5 5 5 6 6 7 7 8
11 11 11 10 10 9 8 6 5 4 4 5 5 6 6 6 6 6 6 6 6 5 5 3 2 2 2 3 4 4 4 3 3 4 4 3 2 1 1 1 1 1 1 2 3 4 4 3 3 2 1 1 2 2 3 3 4 4 5 5 5 4 4 4 4 4 5 5 5 5 5 5 5 5 5 5 5 6 6 7 7 7 7 7 7 9 10 11 11 10 10 10 9 9 7 7 6 6 7 7 8 8 9
11 11 10 10 9 9 7 6 5 5 5 6 6 6 6 6 6 6 6 6 5 4 4 3 2 2 3 4 4 4 4 3 3 4 3 3 2 2 2 2 2 1 0 2 2 3 3 2 2 2 2 3 3 4 4 5 5 5 5 5 4 4 4 4 5 5 6 6 6 6 6 6 7 7 6 6 6 6 7 7 7 7 7 7 7 9 10 11 11 11 11 11 10 10 9 8 8 8 8 9 9 10 10
11 11 10 10 10 9 7 7 6 6 7 7 7 7 7 6 6 5 5 5 4 3 3 2 2 3 3 4 4 4 4 4 3 3 3 3 3 3 3 3 3 2 1 1 2 2 2 2 2 3 3 4 4 5 5 5 6 5 5 5 4 4 4 4 5 6 6 7 7 7 7 7 7 7 7 7 7 6 7 7 7 7 6 6 7 10 10 11 11 11 12 12 12 12 10 10 9 9 8 8 9 9 10
11 11 11 11 10 9 8 8 7 7 7 7 7 7 7 7 7 5 4 3 3 3 3 3 3 4 4 4 5 4 4 4 4 3 3 3 3 4 4 4 3 2 2 2 3 3 3 3 3 4 4 4 5 5 5 5 5 5 5 5 4 4 4 4 5 5 6 6 6 6 7 7 7 7 7 7 7 7 7 7 7 6 5 5 7 10 10 11 11 12 12 13 13 13 11 10 10 10 9 9 9 10 10
Wind_Direction
303 308 309 309 306 302 297 284 255 216 195 196 205 207 190 181 177 178 183 187 193 196 196 199 202 202 185 164 150 147 141 137 138 140 143 147 152 164 197 223 230 235 239 239 236 232 233 234 236 236 238 242 248 253 253 253 253 252 252 249 246 245 245 245 245 242 239 236 235 237 238 239 239 240 240 240 238 233 224 219 219 222 224 226 228 227 226 223 220 218 218 220 222 224 225 224 223 221 223 225 228 230 230
314 327 327 326 324 321 313 291 192 153 142 146 166 192 191 186 184 184 186 189 192 193 192 198 203 201 173 159 164 167 166 164 164 163 168 172 176 178 177 199 217 227 233 237 237 233 234 239 244 247 247 249 252 255 260 264 267 268 268 267 265 262 260 259 256 254 247 243 241 242 243 243 244 245 245 243 241 236 226 221 220 223 226 228 230 231 230 228 225 222 221 222 224 223 224 226 226 225 224 222 220 218 216
352 353 351 350 349 347 349 19 133 139 139 148 165 180 187 191 192 192 191 192 192 190 193 201 203 185 160 163 179 187 187 186 182 172 181 186 187 187 180 187 201 217 231 241 249 254 259 261 261 261 262 263 264 267 273 278 281 281 280 278 275 273 270 265 261 258 250 246 244 246 247 248 248 248 247 245 242 240 231 224 222 225 228 231 233 235 233 232 230 227 225 224 225 225 226 227 229 230 231 227 220 212 202
0 5 4 2 358 356 1 26 103 134 145 158 170 173 185 193 198 196 194 193 192 192 200 205 200 151 151 169 190 202 207 216 272 2 339 9 12 7 1 0 8 7 347 337 340 5 353 324 297 290 296 296 291 286 284 281 278 275 272 270 268 268 265 262 258 256 251 248 245 247 248 250 251 252 250 247 244 243 235 229 225 227 233 238 240 241 240 238 235 232 228 225 223 223 226 225 226 231 238 237 229 211 193
359 8 6 2 358 355 356 7 39 72 73 112 152 167 183 193 200 201 201 201 200 198 208 217 31 43 35 20 343 336 350 355 356 355 9 14 13 10 4 3 7 18 0 351 352 33 35 274 260 270 274 272 268 266 268 268 265 261 260 262 264 265 263 261 259 257 253 250 248 249 249 250 251 252 253 251 248 246 240 234 229 226 232 237 239 241 240 239 236 233 228 225 223 222 229 228 221 216 236 242 238 218 196
0 5 3 1 359 357 356 360 7 11 7 13 41 113 126 58 11 351 317 323 356 19 25 27 28 30 26 19 12 10 9 3 358 356 10 13 12 16 13 10 8 11 353 296 262 219 192 199 211 226 235 241 247 255 265 272 272 267 266 267 268 269 268 268 268 265 260 255 251 252 252 252 251 251 251 251 250 248 243 238 233 228 230 234 235 235 233 233 232 230 227 223 221 221 228 232 232 218 220 228 232 222 208
355 358 357 358 0 3 2 3 4 2 1 10 26 37 32 26 21 16 15 20 25 28 31 32 34 36 36 34 29 22 19 14 8 358 0 4 13 38 60 226 231 230 218 216 229 267 274 280 279 277 273 280 293 301 296 296 298 301 295 285 278 275 274 274 276 276 270 263 256 256 255 254 253 252 252 253 252 250 246 242 239 236 235 236 237 236 233 230 229 226 224 221 218 218 225 231 235 237 229 226 225 220 209
349 352 351 354 359 4 5 6 6 6 11 21 30 33 31 30 29 29 31 36 41 45 47 49 51 52 52 51 50 46 44 46 45 20 352 351 2 36 243 249 250 229 230 265 315 328 328 328 327 319 317 336 351 339 320 316 319 324 320 312 304 297 285 280 281 284 280 272 264 259 258 258 257 255 254 254 254 253 250 248 245 241 240 241 243 243 239 236 232 228 226 222 218 214 221 226 231 240 239 235 229 220 207
343 345 346 348 354 2 7 11 14 19 27 33 37 38 35 35 39 46 53 60 62 62 64 67 70 72 73 73 73 74 79 97 125 145 155 116 52 21 3 348 340 341 1 5 1 357 0 1 0 357 355 356 356 347 337 336 337 338 333 329 326 322 309 296 291 291 289 283 276 268 266 265 263 261 258 257 256 257 256 254 252 247 243 243 245 247 246 246 245 242 237 231 226 223 228 230 231 235 242 243 240 230 209
329 334 342 348 353 3 12 18 20 22 25 30 33 32 30 36 49 64 72 75 77 77 80 83 86 90 89 84 74 60 52 35 16 5 27 42 41 29 16 10 8 9 9 7 4 3 6 7 5 3 355 347 342 340 341 342 340 337 332 329 327 326 319 310 303 299 297 293 287 280 277 275 273 270 267 264 262 262 261 260 258 254 248 245 246 249 252 253 253 251 247 243 238 235 238 239 238 237 243 247 249 245 227
327 341 354 359 2 8 14 16 17 15 15 18 22 21 17 31 59 76 82 87 89 91 92 92 89 85 78 70 59 47 40 30 19 12 25 37 40 35 28 25 24 21 17 13 9 3 0 0 360 355 346 339 335 335 339 338 335 331 329 326 324 323 319 314 309 305 302 299 295 290 284 282 280 278 275 271 268 266 265 264 263 261 255 252 251 253 255 257 257 256 254 253 252 248 249 250 249 245 245 249 254 254 246
352 360 5 7 7 9 10 10 10 9 9 9 9 6 5 31 68 84 92 95 96 96 94 89 83 78 75 70 64 55 50 44 38 32 43 51 52 45 42 41 40 35 30 22 12 1 354 352 349 339 332 329 327 329 333 333 331 327 324 322 319 318 316 314 311 308 306 304 301 299 294 290 288 285 283 279 275 272 269 267 266 264 261 258 256 257 258 259 260 262 261 261 260 259 257 257 256 255 250 250 253 255 254
5 6 7 9 10 10 8 7 7 8 7 3 358 357 10 48 73 84 93 95 94 93 90 86 83 80 77 74 70 64 61 60 58 53 59 65 67 65 59 57 55 54 52 47 31 6 354 349 345 340 335 332 332 337 340 338 332 327 323 319 317 314 314 313 311 309 309 309 308 307 306 304 301 296 291 287 283 278 273 269 266 263 261 260 259 260 261 262 263 265 266 266 266 265 262 260 260 261 256 253 252 254 256
7 8 11 13 15 15 12 12 14 14 11 6 4 10 31 51 63 69 80 88 91 92 90 88 85 81 76 73 70 67 67 69 69 65 66 72 80 81 78 72 71 72 80 79 62 31 5 354 347 342 336 337 343 350 347 339 331 325 322 319 316 315 315 315 315 314 315 316 318 318 319 317 313 307 301 296 291 286 280 274 268 263 260 259 260 261 264 265 265 266 267 267 267 264 262 260 259 258 257 255 255 257 261
15 17 20 22 24 24 26 28 28 26 25 24 26 30 38 45 52 61 73 84 90 91 89 85 81 75 70 66 63 61 61 64 68 69 71 76 89 102 102 101 99 94 75 57 43 28 10 359 347 335 337 347 353 354 346 336 328 323 321 318 316 315 316 317 318 320 322 325 328 331 333 329 323 315 308 302 298 294 288 282 276 271 266 263 263 262 264 266 268 268 270 270 268 264 258 255 253 251 252 253 254 257 262
32 34 35 36 37 38 42 44 44 41 39 37 35 35 41 48 56 66 75 81 84 84 79 75 70 66 60 55 53 53 55 59 63 68 70 78 97 119 124 121 101 59 31 26 24 17 7 358 349 343 353 358 357 349 339 330 324 320 318 316 315 315 317 319 321 324 328 333 336 340 340 336 330 323 316 310 305 301 296 292 288 285 281 277 274 273 273 272 272 272 273 274 275 274 266 259 254 250 248 248 249 251 255
53 51 50 49 48 47 52 54 53 48 43 40 38 41 51 58 63 67 70 71 72 72 70 68 65 62 58 53 49 50 52 55 59 66 70 81 117 144 126 73 44 34 27 21 15 7 1 356 353 357 1 357 350 339 330 322 318 316 315 315 315 317 320 322 325 329 334 339 342 344 343 339 334 330 326 323 319 316 312 308 305 302 298 294 291 291 289 286 284 283 285 290 297 304 295 284 272 261 259 263 274 271 277
63 60 57 55 53 51 54 55 54 50 45 43 43 48 56 60 62 63 64 65 69 73 74 74 73 71 67 60 54 51 51 53 58 69 85 121 174 185 47 37 34 34 29 22 12 2 359 358 359 0 356 347 337 328 321 316 313 313 314 315 317 319 321 325 329 335 338 342 345 347 344 341 338 338 340 341 341 341 340 338 336 334 334 334 333 331 329 327 329 339 354 8 20 25 26 22 17 12 29 36 40 44 50
66 65 61 57 53 51 54 56 55 53 49 48 49 52 57 61 63 65 69 73 79 87 89 88 85 81 74 67 60 54 51 54 69 119 164 180 165 42 38 38 38 37 32 23 13 4 2 1 360 354 342 332 323 318 315 312 311 310 312 314 316 317 321 327 333 339 341 342 344 348 347 344 343 345 352 356 359 2 6 7 7 9 17 22 23 24 25 28 34 38 39 41 43 46 50 51 49 47 49 48 49 54 55
66 65 63 59 55 53 56 57 57 55 54 52 52 53 57 60 64 70 77 83 87 91 92 90 86 80 75 70 64 58 53 164 201 194 191 141 58 47 47 47 46 43 34 26 18 10 5 360 352 339 324 315 311 310 308 307 306 306 308 310 312 312 320 329 336 344 344 344 346 350 350 348 347 353 359 3 8 14 19 20 20 24 30 35 39 40 40 41 43 45 44 42 42 44 47 50 52 52 52 52 52 54 56
66 63 62 60 57 56 57 58 57 56 55 53 52 52 53 55 58 62 69 72 72 71 75 78 79 77 72 67 60 42 281 234 220 201 108 59 51 50 52 53 53 48 38 33 26 17 5 346 326 308 301 298 298 299 300 301 301 302 304 305 307 310 321 328 336 351 349 349 352 357 354 353 355 2 6 11 17 22 26 28 29 31 37 44 48 49 48 47 48 48 47 46 45 46 48 50 51 52 52 51 51 55 56
64 61 60 59 57 56 57 58 57 56 54 52 50 49 49 48 47 47 50 54 55 52 55 63 70 72 65 53 29 333 278 260 261 41 49 50 49 48 49 53 55 52 43 38 31 17 339 308 293 287 286 287 288 291 292 294 295 296 296 298 303 312 321 327 336 351 353 358 3 6 3 5 11 16 19 24 30 34 37 39 40 42 48 52 54 55 54 54 55 56 54 53 53 53 54 55 55 55 53 52 53 60 61
59 57 57 55 54 54 55 54 53 51 49 47 45 42 40 38 37 36 37 40 42 41 41 45 51 54 46 31 4 318 302 324 15 37 42 42 40 33 30 36 46 48 44 39 27 345 298 284 278 275 280 284 286 287 286 286 285 283 283 284 288 297 304 314 329 342 0 14 20 14 19 27 37 40 43 47 50 53 56 58 60 60 60 61 62 63 62 62 64 66 66 63 61 59 58 56 56 55 55 57 61 65 65
54 52 52 51 51 50 50 48 46 44 41 38 34 30 28 28 28 28 28 30 32 32 30 28 26 24 20 14 3 348 8 28 36 39 36 31 22 11 5 12 28 42 40 31 348 289 280 276 274 272 276 281 285 285 280 275 271 266 263 261 259 254 248 242 238 226 73 67 62 50 54 61 66 68 68 69 71 73 73 74 74 73 72 71 71 71 70 70 70 71 73 71 68 64 63 61 58 57 59 62 64 66 65
51 49 48 47 48 48 47 45 42 39 35 30 24 17 16 19 21 21 20 21 21 21 17 13 8 2 359 358 1 13 31 38 39 35 24 11 357 347 343 347 0 30 26 343 280 270 269 269 270 271 272 276 280 281 275 269 260 255 249 243 236 235 224 209 189 165 127 112 106 98 92 91 89 88 86 85 87 88 86 83 80 78 77 77 78 78 76 75 74 75 76 76 73 70 69 67 65 62 63 65 66 69 68
49 47 45 44 44 44 43 41 39 35 29 21 12 4 6 10 13 12 10 9 7 2 355 347 338 325 319 328 346 12 27 30 23 10 351 338 329 325 324 326 333 350 318 281 266 260 262 266 269 273 271 270 270 270 269 265 259 252 248 239 229 230 221 200 169 148 138 129 123 117 112 108 106 105 103 101 98 94 92 89 86 84 84 85 86 86 84 82 79 78 78 78 75 73 71 70 68 64 65 68 71 76 77
43 40 38 38 38 37 35 32 29 24 16 5 355 352 358 0 1 358 356 350 341 327 313 299 285 271 270 283 304 320 326 339 343 336 328 326 325 324 324 325 325 319 299 281 267 256 255 260 266 269 265 259 253 254 259 260 257 253 253 244 231 226 217 191 156 138 141 136 132 132 126 122 119 118 114 109 103 97 96 96 96 96 97 98 97 96 94 92 90 87 86 84 83 80 78 75 72 68 69 73 80 85 91
32 28 26 25 25 22 16 9 2 356 349 342 341 345 347 346 343 341 336 327 316 304 296 289 282 275 278 290 305 316 321 327 330 328 330 334 337 338 331 319 306 301 297 287 271 253 250 253 257 261 257 250 244 243 248 250 250 250 250 244 233 219 200 179 155 139 143 145 145 148 141 134 128 123 119 113 108 105 105 106 107 109 109 108 106 104 103 102 101 99 96 95 95 96 96 96 94 93 93 93 94 99 108
11 7 4 3 0 351 340 334 331 329 329 331 333 335 333 329 326 325 321 314 307 302 300 296 294 292 300 317 334 343 337 333 330 329 335 343 348 339 318 304 295 291 282 273 263 256 252 252 255 263 262 257 249 245 243 241 241 244 244 239 226 205 189 178 163 147 148 159 168 167 154 142 132 126 122 120 118 117 117 117 117 118 116 113 110 108 108 107 107 107 106 107 109 113 114 117 123 134 137 136 133 136 140
330 332 335 335 330 322 320 320 320 320 320 321 322 322 322 321 320 320 317 312 308 304 303 301 300 303 317 340 351 348 338 331 327 326 329 331 328 310 299 294 292 286 271 258 251 252 253 255 258 263 264 261 254 241 235 231 230 232 233 228 218 202 190 181 176 178 184 188 188 180 162 149 142 139 136 133 129 128 128 127 127 125 121 118 116 115 115 116 117 117 115 118 123 128 132 140 152 162 163 164 167 173 181
310 316 318 318 315 315 317 318 317 315 313 311 310 311 312 313 315 317 317 314 312 308 307 305 304 308 324 340 343 331 323 319 317 317 316 312 304 293 289 288 286 283 274 263 253 249 253 256 257 252 253 252 249 232 228 224 219 213 215 216 215 206 192 185 189 202 209 203 194 186 173 164 159 157 156 149 142 140 140 138 135 131 129 128 128 129 130 131 131 129 127 132 140 146 152 161 168 174 176 180 184 193 199
310 311 311 310 310 311 313 313 313 313 313 311 308 306 307 308 311 314 315 316 317 319 319 315 309 309 314 314 311 304 303 304 307 307 305 297 289 283 283 280 279 276 275 271 265 257 253 252 250 245 241 238 234 226 226 221 214 206 205 207 208 200 193 195 201 208 210 205 197 189 183 178 175 172 167 161 156 152 151 150 147 145 144 144 145 146 147 148 147 145 143 149 158 165 170 177 180 182 184 188 194 201 205
300 301 301 301 302 304 305 307 310 313 316 317 316 315 313 312 312 313 315 318 322 326 325 318 308 299 293 288 286 286 288 292 297 300 298 293 284 277 278 277 276 274 270 267 263 259 256 254 250 244 234 227 222 220 221 218 212 204 202 201 200 200 202 203 206 212 211 207 201 195 192 188 183 179 175 172 169 164 163 162 162 162 161 160 161 162 164 165 165 162 164 169 174 182 186 189 190 192 193 197 202 207 208
288 289 293 296 299 301 303 305 309 313 316 317 316 315 313 312 312 314 318 321 324 325 322 318 312 303 295 290 285 284 286 291 295 296 297 298 296 288 284 281 279 275 270 264 260 257 253 250 248 243 232 226 223 222 219 215 210 203 201 200 201 204 205 206 209 216 214 212 209 205 202 198 193 188 183 181 180 180 179 179 179 182 181 180 180 183 185 185 183 182 190 193 193 198 203 204 202 201 205 210 215 219 219
284 286 292 298 302 305 307 308 309 311 312 311 310 309 308 309 311 315 319 320 321 322 321 318 314 308 303 299 296 294 296 299 301 301 300 301 301 296 287 282 280 277 275 273 269 263 254 249 245 242 233 228 227 226 220 214 209 206 206 206 206 206 207 210 214 219 218 217 216 214 212 209 205 202 198 195 194 195 196 196 197 201 203 203 202 202 205 205 205 211 221 223 222 224 227 225 219 213 217 222 227 232 233
286 291 296 301 306 312 316 318 318 316 315 315 315 314 313 313 315 317 318 319 320 321 320 318 314 307 300 297 296 297 301 304 307 307 306 305 301 295 286 281 278 277 278 279 277 272 263 255 248 242 234 229 227 227 222 215 210 208 209 209 208 205 209 215 219 222 224 225 224 222 220 219 219 221 224 222 217 215 217 219 223 230 234 234 232 226 225 224 226 234 241 243 243 245 245 242 236 229 228 231 235 242 244
289 294 300 306 313 319 323 325 324 323 322 321 320 319 319 319 320 321 321 321 320 320 319 318 315 308 301 297 296 299 303 307 309 310 308 305 301 294 287 282 278 278 280 280 277 273 268 260 250 242 236 231 228 226 223 218 214 211 210 208 207 206 213 218 222 225 229 233 235 235 230 227 229 235 243 244 242 241 244 248 253 258 262 262 260 253 247 243 243 247 253 254 255 256 254 252 247 241 238 238 241 244 247
289 294 301 308 314 319 321 321 320 319 318 317 316 317 318 320 321 322 321 320 319 318 318 318 317 312 306 302 301 304 306 307 307 307 305 301 298 293 288 285 283 282 283 281 278 272 264 255 247 242 239 234 230 227 223 220 218 214 210 208 208 211 216 221 225 225 230 236 243 248 243 239 236 238 244 249 253 256 258 261 264 266 268 269 269 266 261 259 260 260 262 263 264 263 262 261 258 252 248 246 245 245 244
290 294 299 304 309 312 313 312 311 310 310 311 314 317 319 320 321 321 320 320 319 319 320 320 320 316 310 308 308 309 307 307 306 304 301 298 296 294 291 290 289 287 284 280 276 271 261 251 244 241 239 236 232 229 225 222 219 215 209 209 213 219 225 230 232 229 229 234 242 252 254 252 248 248 249 252 255 257 260 263 266 270 272 274 276 277 275 273 273 273 272 271 271 271 270 268 264 259 254 252 250 248 245
292 296 298 301 304 307 308 308 307 308 311 315 319 320 320 321 321 321 322 322 322 323 324 324 322 318 314 312 311 311 310 310 309 308 304 302 301 299 297 296 294 293 286 280 274 269 259 250 244 241 240 237 234 231 226 222 217 213 207 210 218 229 236 241 244 241 237 236 240 250 259 262 261 259 258 257 257 258 260 264 269 275 279 283 286 290 290 287 284 282 281 278 276 274 274 271 266 258 253 251 250 249 249
299 300 301 302 304 306 306 307 308 312 316 320 321 321 321 321 321 322 324 325 325 326 327 326 324 319 315 312 311 312 315 318 318 315 313 311 309 308 305 303 301 297 292 286 278 269 259 252 246 242 240 237 234 232 226 220 215 210 205 209 221 236 244 251 255 255 255 253 252 253 264 269 272 270 267 264 263 263 264 267 272 277 284 290 296 300 300 297 293 289 286 282 279 276 275 274 269 259 253 250 249 250 251
306 305 304 303 303 302 303 305 310 315 319 321 321 321 321 322 323 324 325 326 327 328 328 327 324 319 315 313 313 317 324 327 326 322 319 318 316 314 311 309 307 303 299 293 286 275 266 258 252 247 243 239 236 234 227 221 215 209 206 212 225 239 252 262 269 272 278 283 286 283 282 281 281 281 277 274 270 268 269 272 276 283 293 301 306 308 307 306 304 299 288 279 275 274 276 277 275 266 258 254 252 253 254
308 306 304 302 300 299 302 307 313 319 321 322 322 322 323 324 325 325 326 327 328 329 328 326 323 318 317 319 323 330 335 335 332 327 323 321 320 318 315 313 312 309 306 301 295 287 278 272 266 261 258 254 251 248 242 235 228 221 222 229 238 249 266 279 288 294 299 303 305 304 302 298 296 296 294 290 284 278 275 276 284 295 306 314 317 315 316 318 321 320 306 289 279 276 278 279 277 272 267 264 262 262 263
306 304 303 300 299 299 304 311 317 321 322 323 324 324 325 325 326 326 328 329 330 330 329 328 327 327 328 330 333 337 339 337 333 329 325 323 322 321 318 316 314 313 311 309 305 300 294 289 286 284 285 285 286 288 286 281 273 267 263 263 267 274 289 298 302 304 306 307 308 309 310 311 314 316 312 307 301 294 290 292 300 314 322 327 329 329 330 331 332 332 324 311 296 287 282 280 277 274 272 271 270 270 269
307 306 304 302 301 303 310 316 320 323 324 325 325 326 326 326 326 327 329 331 332 332 332 333 336 341 342 340 339 339 339 336 333 329 326 325 324 323 320 318 317 317 317 316 314 312 309 307 305 305 305 306 307 308 305 301 298 298 296 295 297 303 309 308 305 303 305 306 308 310 316 324 332 336 325 317 311 308 310 315 325 333 336 339 342 341 336 332 328 323 312 299 288 282 281 279 277 275 273 272 270 269 268
314 313 310 308 308 312 317 321 324 325 326 327 327 326 326 326 327 328 330 332 333 333 334 336 340 346 348 346 343 341 340 336 332 330 329 328 328 328 325 324 324 325 325 324 323 324 323 321 318 315 313 313 315 321 326 330 333 334 331 325 320 317 314 308 304 302 302 304 309 315 326 336 342 343 331 322 317 317 321 327 335 340 339 340 340 334 320 306 296 288 280 276 275 274 274 275 276 276 274 271 270 268 269
320 317 314 314 316 320 323 325 326 326 327 327 326 326 326 327 329 331 332 333 333 333 333 336 340 346 348 347 346 344 340 335 332 332 334 335 335 336 336 337 337 336 335 334 335 338 341 341 339 339 345 356 4 9 8 6 3 0 354 346 337 328 321 317 315 313 314 317 322 330 339 344 346 343 334 327 324 324 327 331 335 336 333 327 318 305 292 281 272 268 266 267 269 271 272 273 274 275 276 277 276 275 276
321 318 318 319 322 324 324 325 325 325 325 325 326 327 328 330 333 336 338 339 339 338 339 341 344 348 349 349 348 344 338 335 336 339 343 345 347 349 352 352 350 347 347 350 358 10 19 24 26 27 30 31 29 26 23 19 15 10 5 359 354 348 344 342 342 339 340 342 346 351 354 354 351 346 342 339 337 334 332 331 330 326 320 313 307 302 297 292 286 281 276 271 268 269 273 275 276 277 278 280 282 283 284
318 318 319 320 321 321 321 321 321 321 323 325 328 330 333 336 339 342 343 344 344 344 345 347 349 351 351 351 349 344 342 343 347 352 357 1 5 8 7 5 2 2 8 17 28 39 41 41 40 38 36 35 33 30 26 23 20 17 12 9 5 3 2 1 359 359 358 359 2 7 8 6 2 357 355 353 349 343 337 332 327 319 312 309 308 306 303 303 301 297 291 284 278 274 276 278 280 280 280 282 285 287 288
314 315 315 316 316 316 316 317 318 320 324 328 332 337 341 344 345 344 344 344 344 344 344 346 349 350 351 352 352 349 354 1 8 10 17 23 25 23 20 17 17 20 28 35 41 45 44 42 41 39 37 36 34 31 28 26 23 19 15 12 9 7 6 5 3 2 4 5 9 15 18 17 13 8 1 353 346 341 337 332 327 319 313 308 302 296 298 302 304 302 299 295 291 287 283 281 280 278 278 281 284 287 288
310 311 311 311 311 312 313 314 317 323 330 336 341 345 347 347 344 342 341 340 340 340 341 344 347 349 351 354 356 357 10 27 38 41 44 43 41 36 32 31 31 33 39 44 47 48 48 47 44 41 39 36 34 30 27 24 21 16 13 10 8 6 4 2 0 0 2 4 7 14 16 15 11 5 353 341 334 330 328 325 321 313 305 295 288 291 301 306 308 306 302 298 295 292 288 284 280 277 275 275 278 281 284
309 309 310 311 312 314 316 319 324 332 340 345 348 348 347 344 341 338 336 335 335 336 339 342 345 348 353 356 359 6 43 69 75 72 65 59 53 47 44 43 42 43 47 52 55 57 55 52 49 44 40 36 31 26 22 19 15 10 7 4 3 1 357 354 353 354 356 356 356 2 4 1 354 342 330 322 318 315 313 310 305 297 289 282 285 299 308 312 312 310 306 301 296 291 288 286 285 286 283 278 275 277 279
311 312 315 316 318 320 322 326 331 338 345 348 348 345 342 339 336 331 328 327 327 330 333 336 340 344 348 352 359 77 113 110 101 89 78 70 63 57 54 53 53 54 57 61 65 66 64 60 54 49 43 37 31 24 17 10 5 1 359 356 354 351 347 345 344 344 341 337 337 343 343 337 328 318 309 303 298 294 292 290 289 289 289 293 302 312 316 316 314 311 307 303 298 292 288 283 281 286 286 284 280 279 280
318 320 322 323 323 322 322 324 329 335 340 340 338 336 333 329 324 318 316 315 317 318 321 324 326 323 310 263 190 164 151 136 117 99 86 79 72 65 64 64 66 69 73 74 73 73 72 68 62 55 48 40 30 19 8 358 351 348 346 344 342 341 338 335 332 326 320 318 319 320 315 310 305 298 291 285 283 285 288 291 295 300 303 308 314 319 319 318 314 310 306 303 299 296 291 283 278 280 284 286 286 285 286
323 325 324 323 320 316 316 316 319 324 326 324 321 318 314 310 305 302 301 302 302 303 303 300 292 274 235 201 183 172 166 151 128 106 95 89 85 81 83 86 89 91 87 82 78 75 73 70 65 58 50 36 15 354 340 333 329 329 331 332 333 331 325 317 309 303 300 302 303 302 298 297 296 292 289 290 294 301 306 310 312 313 313 316 319 322 321 318 315 311 306 303 301 299 294 287 283 282 284 286 288 289 291
321 321 319 317 314 311 309 307 305 303 301 300 298 296 293 290 287 285 285 285 286 285 281 274 260 238 214 197 186 177 174 159 135 112 110 112 122 151 181 196 192 145 94 82 77 73 67 61 53 39 6 330 312 306 311 312 314 316 320 322 322 319 307 297 290 290 294 297 300 302 302 303 305 307 309 312 316 319 319 319 318 316 315 317 320 324 323 320 316 312 307 304 301 299 294 290 287 285 286 287 289 291 294
314 312 312 312 310 307 302 296 289 285 284 283 282 281 279 276 271 269 272 275 275 270 263 256 239 219 206 196 189 181 175 159 140 127 133 148 177 207 221 229 231 224 95 68 62 58 50 34 5 330 307 300 299 300 304 307 309 312 312 312 310 304 297 294 295 299 304 309 313 317 317 318 320 321 322 324 326 327 324 321 319 316 317 320 324 327 325 322 317 312 307 303 300 297 294 291 288 286 287 288 289 290 291
308 307 308 309 308 303 294 285 278 275 276 276 276 276 277 275 269 259 265 269 267 255 243 227 211 204 200 196 193 188 175 161 150 148 160 180 205 224 234 239 242 250 311 20 26 25 8 345 323 310 303 300 299 300 304 307 310 312 311 311 308 304 300 301 305 311 315 319 321 323 324 324 323 322 323 324 327 328 325 322 318 315 317 323 327 327 325 321 317 311 306 302 299 297 294 290 287 287 287 287 288 290 290
309 308 310 310 307 300 290 280 273 270 271 272 275 278 282 284 283 270 266 261 253 233 218 205 198 197 198 199 197 192 181 169 163 168 187 207 223 235 242 246 252 271 315 342 350 347 334 324 317 311 308 306 305 304 308 312 316 319 320 321 321 321 314 310 309 313 316 318 319 320 321 321 321 320 322 324 326 327 324 320 317 314 317 323 326 324 322 319 315 310 305 302 299 297 293 290 288 288 287 287 288 290 291